Simultaneous Nadir Overpasses (SNOs) Predictions

Prediction of SNOs between AQUA and GOES-15 Satellite Orbit:

Table of predicted SNOs for the next 14.0 days since TLE Epoch: 7/6/2018
Index Date Time (AQUA) AQUA Lat,Lon GOES-15 Lat,Lon Distance(km) Time Diff (sec)
1 07/07/2018 22:35:24 0.26,-134.91 0.14,-135.37 53.21 80
2 07/09/2018 22:23:13 0.87,-131.95 0.14,-135.41 393.27 80
3 07/10/2018 10:44:28 0.19,-137.11 -0.17,-135.39 195.62 80
4 07/12/2018 10:32:16 -0.42,-134.15 -0.17,-135.41 143.23 80
5 07/12/2018 22:53:41 -0.63,-139.35 0.19,-135.44 444.31 80
6 07/14/2018 10:20:05 -1.09,-131.20 -0.17,-135.43 481.52 80
7 07/14/2018 22:41:29 -0.01,-136.40 0.19,-135.46 106.00 80
8 07/16/2018 22:29:17 0.62,-133.44 0.19,-135.48 232.07 80
9 07/17/2018 10:50:33 0.46,-138.60 -0.21,-135.46 357.10 80
10 07/19/2018 10:38:21 -0.16,-135.64 -0.21,-135.47 19.39 80




NCC Satellite Simultaneous Nadir Overpasses (SNOs) Prediction Service
